Temp
10 10 10 10 10 10 10 11 11 11 11 11 11 11 11 11 11 11 12 12 12 11 11 11 11 10 11 11 11 11 9 10 11 11 9 9 10 9 9 9 8 9 8 8 8
11 10 10 10 10 10 10 10 11 11 11 11 11 11 11 11 11 11 12 12 12 11 11 10 11 11 10 10 10 9 9 9 9 9 9 10 9 9 8 8 9 9 9 8 8
11 11 11 11 10 11 10 10 11 11 11 11 11 11 11 11 11 11 11 12 12 11 11 11 11 11 10 10 10 10 9 9 10 10 10 9 9 9 9 9 8 9 9 8 8
11 11 11 11 11 11 11 11 11 11 11 11 11 11 10 10 10 11 11 12 11 11 11 11 11 10 10 10 10 10 9 9 9 9 10 9 9 9 9 9 8 9 8 8 8
11 11 11 11 11 11 11 11 11 11 11 11 11 11 11 10 10 11 11 12 11 11 11 11 11 10 10 10 9 9 8 9 9 10 10 10 9 9 9 9 9 9 9 8 7
11 11 11 11 11 11 11 11 11 11 11 11 11 11 11 10 11 11 11 12 11 10 11 11 11 11 10 9 9 9 9 9 9 9 10 9 10 9 9 9 9 9 8 8 8
11 11 11 11 11 10 11 11 11 11 11 11 11 11 10 9 10 11 11 11 10 10 10 11 11 10 10 10 10 10 10 10 9 9 10 10 9 9 8 8 8 8 8 8 7
12 11 11 11 10 10 10 10 10 10 10 10 10 10 9 10 10 10 11 11 10 10 11 11 11 11 10 11 10 9 9 9 8 9 9 10 9 8 9 8 8 8 8 8 8
12 11 11 11 11 10 10 10 10 9 10 10 10 10 9 10 10 11 11 11 10 10 11 11 11 10 11 11 12 11 11 10 9 10 9 10 9 9 9 9 9 9 8 8 8
12 12 12 11 11 11 10 10 10 10 9 10 10 10 10 9 11 10 11 10 10 10 11 11 11 12 12 12 12 13 12 11 10 10 10 10 10 10 10 9 9 9 9 8 8
12 12 12 12 11 11 10 10 10 10 10 10 10 10 10 10 10 10 10 10 10 10 11 11 12 13 13 13 12 12 12 12 10 10 9 10 10 10 10 10 9 9 9 9 9
11 12 11 12 11 11 10 10 10 10 10 10 10 10 10 9 9 9 10 10 10 11 11 11 12 13 12 12 12 13 13 12 11 11 9 10 10 10 10 10 10 9 9 9 9
11 11 11 12 12 11 10 10 10 11 11 10 10 10 10 10 10 10 10 10 11 11 11 12 13 12 12 13 13 13 14 13 12 11 10 11 11 10 10 10 10 10 9 9 9
11 11 11 11 11 11 11 10 11 11 11 11 11 11 10 10 10 10 10 10 11 12 12 12 12 12 12 13 14 14 13 13 12 13 14 12 13 12 10 9 11 11 11 10 9
11 11 11 11 11 11 11 11 11 11 15 12 11 11 11 11 11 11 10 10 11 11 11 13 12 12 13 14 14 14 13 13 13 14 13 13 14 12 11 10 10 11 11 10 9
11 11 11 11 11 11 11 10 10 11 14 12 12 11 11 11 11 11 10 10 11 11 12 12 12 12 13 13 13 13 12 12 13 14 15 14 14 15 13 12 11 11 11 11 10
11 11 11 11 11 11 11 10 11 13 12 12 12 12 12 12 11 11 11 11 12 12 13 13 13 13 12 13 12 13 14 15 14 15 16 13 13 15 12 12 12 12 12 11 11
10 11 11 11 11 11 10 9 11 12 12 11 12 12 12 13 12 12 12 12 12 12 14 14 13 13 13 13 14 14 15 16 15 16 16 12 14 14 13 13 12 12 11 11 11
10 10 10 10 10 10 10 10 12 12 11 12 12 13 13 13 13 12 12 13 13 12 13 14 14 13 13 13 13 14 14 14 15 15 15 16 14 13 13 12 11 10 11 11 11
9 10 10 10 10 10 9 11 10 10 10 11 12 13 14 13 13 13 13 13 13 13 13 14 14 13 13 13 13 13 14 14 14 15 15 15 14 14 12 11 10 10 10 11 11
9 9 9 9 9 9 9 10 9 9 10 10 12 12 13 13 13 13 14 13 13 13 13 13 14 13 12 13 14 13 14 14 14 14 16 16 15 12 11 10 10 10 10 10 10
9 7 9 8 8 7 9 8 8 9 9 10 10 11 12 12 13 13 13 13 13 13 13 13 14 14 14 13 13 13 14 14 15 15 14 13 14 11 11 10 11 10 10 9 9
9 8 8 8 8 8 7 7 8 8 9 9 10 10 10 11 12 13 13 13 13 13 13 13 14 14 13 12 12 12 13 13 13 13 14 14 14 12 11 11 11 10 10 10 9
8 6 6 7 7 7 6 7 8 8 8 8 9 9 10 10 11 12 12 12 13 13 13 13 14 14 15 15 14 13 12 12 13 14 14 14 14 12 10 11 11 10 10 9 9
7 6 6 5 5 6 6 6 7 7 7 8 8 8 8 10 11 11 12 12 12 13 13 13 14 14 14 13 13 13 13 12 12 13 13 14 13 13 11 10 10 10 10 9 9
6 5 5 5 5 5 4 5 5 6 7 8 8 7 8 8 9 10 9 11 12 12 12 12 13 13 13 12 12 12 12 12 12 12 12 12 12 12 11 11 11 10 10 10 10
5 4 4 3 3 3 5 4 4 6 6 7 7 8 8 7 8 9 9 9 9 10 11 12 12 12 13 13 12 12 12 12 12 12 12 12 12 11 11 11 10 10 10 10 10
Height
3152 3151 3151 3150 3149 3148 3148 3149 3149 3149 3150 3151 3153 3155 3157 3160 3162 3164 3165 3167 3167 3168 3169 3170 3171 3171 3171 3171 3170 3167 3168 3169 3171 3175 3175 3175 3177 3177 3177 3178 3178 3178 3180 3179 3179
3154 3153 3151 3150 3149 3149 3148 3148 3149 3149 3150 3151 3152 3154 3156 3159 3162 3164 3166 3166 3167 3168 3170 3171 3172 3172 3172 3170 3168 3167 3167 3168 3170 3173 3175 3176 3178 3179 3180 3181 3179 3179 3179 3180 3181
3156 3154 3153 3151 3150 3149 3148 3148 3148 3149 3149 3150 3151 3153 3155 3158 3162 3163 3165 3167 3168 3169 3171 3172 3173 3173 3174 3170 3168 3166 3167 3168 3169 3171 3174 3177 3178 3179 3182 3183 3181 3181 3181 3181 3182
3157 3156 3154 3153 3151 3150 3149 3148 3148 3148 3149 3150 3151 3153 3156 3158 3166 3162 3165 3167 3168 3170 3172 3173 3173 3174 3174 3172 3168 3167 3166 3167 3169 3172 3173 3177 3178 3180 3182 3182 3182 3181 3182 3183 3184
3158 3157 3155 3154 3152 3151 3150 3149 3149 3149 3149 3150 3152 3153 3156 3159 3160 3161 3164 3167 3168 3171 3172 3173 3174 3174 3175 3171 3169 3166 3164 3166 3170 3172 3175 3177 3179 3181 3182 3181 3182 3182 3183 3185 3186
3160 3158 3157 3155 3154 3152 3151 3150 3150 3150 3150 3150 3152 3154 3157 3162 3159 3161 3163 3166 3168 3171 3172 3173 3174 3174 3174 3172 3171 3168 3166 3167 3170 3172 3175 3178 3178 3181 3183 3182 3184 3185 3186 3187 3188
3161 3159 3158 3157 3156 3154 3153 3152 3151 3151 3151 3152 3153 3155 3157 3159 3159 3161 3163 3165 3167 3170 3172 3173 3174 3175 3175 3173 3172 3170 3169 3169 3169 3172 3174 3176 3179 3181 3183 3183 3185 3187 3189 3190 3191
3162 3160 3159 3158 3157 3156 3155 3155 3154 3153 3153 3153 3154 3155 3158 3157 3158 3160 3162 3165 3167 3170 3172 3174 3174 3175 3175 3173 3173 3173 3171 3172 3170 3171 3174 3176 3178 3180 3182 3184 3187 3189 3190 3191 3192
3162 3160 3159 3158 3158 3157 3157 3156 3156 3155 3155 3155 3156 3157 3158 3157 3158 3159 3162 3165 3167 3170 3172 3174 3174 3175 3174 3175 3174 3175 3174 3173 3172 3173 3174 3175 3177 3180 3181 3185 3187 3189 3191 3192 3192
3162 3160 3159 3158 3157 3157 3157 3157 3156 3156 3156 3156 3157 3160 3157 3158 3157 3159 3162 3165 3168 3171 3173 3175 3176 3176 3176 3175 3173 3174 3174 3174 3174 3175 3173 3176 3178 3179 3181 3183 3186 3189 3191 3192 3194
3160 3158 3157 3156 3156 3156 3157 3157 3159 3159 3157 3157 3158 3157 3156 3155 3157 3160 3162 3165 3169 3172 3175 3175 3176 3174 3173 3174 3174 3175 3175 3175 3175 3175 3176 3177 3180 3180 3181 3182 3184 3188 3190 3192 3194
3158 3156 3155 3155 3154 3155 3155 3156 3156 3157 3157 3156 3155 3156 3155 3157 3159 3160 3163 3168 3170 3172 3174 3176 3174 3174 3175 3175 3175 3175 3175 3175 3175 3175 3178 3178 3179 3180 3181 3180 3182 3186 3189 3191 3193
3156 3154 3153 3152 3152 3153 3153 3155 3155 3155 3155 3156 3156 3156 3156 3157 3161 3161 3163 3167 3169 3171 3172 3172 3173 3172 3173 3174 3174 3174 3174 3175 3176 3175 3177 3177 3177 3177 3179 3180 3181 3183 3185 3188 3191
3153 3151 3150 3150 3152 3151 3151 3153 3154 3154 3156 3156 3156 3157 3157 3159 3161 3161 3162 3167 3167 3170 3171 3171 3172 3172 3172 3173 3174 3172 3173 3174 3175 3175 3172 3176 3174 3175 3177 3178 3179 3181 3182 3185 3188
3150 3148 3147 3146 3147 3148 3151 3151 3153 3154 3150 3155 3155 3155 3156 3159 3158 3158 3160 3164 3167 3168 3170 3169 3169 3171 3172 3171 3172 3172 3173 3175 3176 3175 3175 3174 3171 3173 3175 3176 3177 3178 3179 3182 3184
3146 3145 3144 3143 3143 3146 3147 3149 3152 3156 3149 3151 3151 3153 3155 3157 3158 3158 3160 3162 3164 3166 3167 3167 3168 3169 3170 3170 3170 3171 3174 3174 3175 3173 3168 3171 3174 3167 3173 3175 3175 3175 3175 3177 3179
3142 3141 3140 3140 3140 3142 3145 3148 3154 3149 3148 3150 3150 3151 3154 3155 3157 3158 3159 3161 3162 3165 3164 3166 3167 3168 3168 3170 3170 3172 3170 3167 3171 3168 3162 3170 3174 3168 3171 3171 3172 3172 3173 3173 3175
3138 3137 3136 3136 3136 3139 3142 3148 3147 3144 3146 3145 3147 3150 3151 3153 3154 3155 3157 3158 3159 3160 3158 3161 3164 3165 3166 3167 3167 3169 3166 3162 3162 3159 3160 3169 3168 3167 3169 3169 3170 3170 3169 3169 3170
3134 3133 3133 3133 3134 3136 3140 3143 3142 3143 3143 3144 3145 3147 3148 3149 3151 3152 3153 3154 3155 3157 3158 3156 3158 3161 3163 3165 3167 3166 3167 3166 3164 3165 3164 3159 3166 3166 3166 3166 3167 3167 3167 3167 3168
3131 3131 3130 3130 3132 3134 3138 3139 3138 3138 3138 3140 3142 3142 3143 3145 3148 3148 3149 3150 3152 3154 3156 3156 3156 3160 3159 3161 3162 3164 3164 3164 3162 3159 3157 3156 3162 3162 3165 3164 3165 3165 3165 3164 3164
3129 3128 3128 3128 3129 3131 3134 3136 3136 3135 3136 3139 3140 3140 3140 3141 3143 3144 3145 3148 3148 3151 3153 3155 3154 3158 3159 3158 3157 3161 3161 3163 3161 3161 3156 3154 3156 3159 3161 3162 3163 3162 3162 3160 3160
3126 3128 3125 3126 3130 3129 3132 3131 3131 3134 3133 3135 3136 3137 3138 3140 3140 3141 3142 3144 3144 3146 3149 3152 3152 3151 3153 3154 3155 3157 3158 3157 3156 3156 3157 3160 3159 3157 3158 3159 3159 3160 3160 3158 3158
3123 3123 3122 3123 3128 3127 3127 3127 3128 3131 3133 3134 3134 3134 3135 3137 3139 3138 3139 3139 3140 3143 3145 3148 3149 3147 3151 3154 3153 3154 3156 3156 3157 3156 3155 3157 3152 3154 3156 3157 3157 3158 3158 3157 3156
3122 3122 3120 3120 3120 3122 3123 3124 3125 3125 3127 3128 3130 3130 3132 3133 3134 3134 3135 3134 3136 3139 3141 3143 3143 3143 3143 3144 3147 3150 3152 3153 3153 3150 3149 3152 3152 3153 3155 3155 3155 3156 3156 3156 3154
3118 3118 3117 3120 3119 3117 3119 3120 3122 3123 3123 3124 3126 3127 3128 3130 3131 3131 3132 3132 3132 3133 3136 3140 3140 3142 3142 3144 3146 3147 3148 3149 3149 3149 3149 3148 3151 3152 3153 3153 3153 3153 3153 3152 3152
3115 3115 3114 3113 3113 3114 3116 3118 3118 3119 3119 3122 3123 3122 3124 3125 3127 3127 3127 3130 3130 3130 3131 3135 3137 3139 3141 3143 3144 3144 3145 3145 3146 3146 3147 3148 3149 3150 3149 3149 3150 3151 3151 3151 3151
3111 3110 3109 3110 3110 3111 3113 3112 3113 3112 3115 3115 3116 3118 3120 3122 3119 3121 3121 3122 3125 3127 3129 3132 3134 3137 3136 3138 3142 3141 3140 3141 3142 3143 3144 3144 3146 3144 3146 3146 3147 3149 3149 3149 3149
Wind_Speed
11 9 7 4 2 1 2 3 4 6 9 11 12 17 17 14 11 8 7 5 7 7 7 7 5 3 3 3 7 8 4 12 12 10 9 8 7 7 7 8 3 4 10 10 11
13 12 11 9 6 3 1 2 4 4 7 11 12 13 17 16 13 10 8 7 9 9 9 9 4 2 2 8 7 2 5 11 10 10 10 11 9 6 8 7 6 7 12 9 13
13 13 11 10 8 6 3 1 3 4 5 9 13 12 14 16 13 13 10 9 10 12 11 8 4 4 2 4 7 3 8 13 12 10 11 10 9 7 9 5 4 7 8 12 14
12 12 11 9 9 8 5 3 3 4 4 7 11 14 12 12 6 14 12 11 11 13 10 7 4 3 3 1 3 5 13 13 10 9 10 10 9 8 6 5 7 7 10 14 14
12 11 10 9 8 8 7 5 4 3 4 6 10 15 14 12 10 11 15 13 13 15 11 6 1 2 3 2 3 4 11 13 7 8 5 7 8 8 7 6 9 11 13 15 12
10 9 9 9 8 8 7 6 5 4 4 6 10 13 14 8 10 9 15 15 15 16 11 6 1 1 2 3 4 7 8 12 6 8 8 8 10 7 8 8 11 12 15 15 14
10 8 7 7 6 7 8 7 6 6 6 8 10 12 14 10 9 9 14 18 19 17 11 6 3 2 1 4 9 12 8 8 7 12 7 10 10 9 9 9 12 13 13 15 13
11 8 5 4 4 5 6 6 5 4 5 8 9 11 7 10 6 10 14 17 20 17 12 7 3 1 2 4 7 5 7 1 3 17 8 9 7 6 10 10 10 13 13 14 10
11 8 6 3 2 3 3 4 4 3 2 5 6 7 6 11 7 11 15 17 22 17 12 7 3 4 1 4 5 4 7 4 6 9 3 11 10 6 12 12 12 14 12 10 10
11 9 6 3 2 1 1 1 1 1 0 3 3 3 6 7 11 13 15 20 22 16 12 7 3 2 2 5 6 7 7 5 3 4 6 5 11 7 9 12 14 15 13 12 10
10 8 6 4 3 2 2 2 2 2 4 4 5 7 5 9 14 15 17 21 21 16 10 9 7 7 4 4 2 3 6 5 4 3 5 3 5 6 11 14 13 14 14 13 11
10 10 7 6 5 2 2 5 4 1 5 4 4 3 5 10 13 15 17 14 18 15 13 9 11 5 5 4 5 4 3 4 5 5 6 3 6 7 8 14 15 14 13 13 12
11 11 9 7 6 5 5 7 4 2 5 6 5 4 3 9 11 13 16 13 15 16 14 14 4 9 8 7 5 3 3 0 2 4 3 1 5 8 15 19 17 16 16 16 14
11 11 11 8 7 6 8 10 5 1 2 6 7 5 6 8 7 12 15 12 11 14 13 14 14 11 8 8 7 6 2 4 5 4 3 2 3 4 10 17 9 16 19 19 15
13 11 10 10 8 9 9 9 7 3 4 8 10 9 9 8 6 6 14 12 12 12 11 8 9 10 9 9 7 6 3 3 5 3 5 4 7 7 3 10 14 14 15 17 19
15 13 9 9 10 9 12 10 7 5 5 10 13 12 11 8 8 10 10 11 11 11 13 8 9 8 8 6 6 6 3 2 5 7 13 6 7 8 2 2 3 5 10 14 20
16 13 9 8 10 9 13 12 6 10 6 10 13 12 13 10 9 11 13 14 12 13 14 13 13 8 8 6 7 5 8 10 5 7 2 4 6 6 3 8 6 6 7 9 16
16 11 8 7 9 11 14 12 12 6 10 10 12 13 15 14 12 12 13 15 16 15 10 17 15 15 12 12 10 10 9 10 3 5 3 2 5 1 7 7 6 9 8 7 10
14 10 7 5 8 11 17 20 9 11 10 9 10 14 16 15 10 13 14 13 15 19 11 15 9 15 17 13 12 11 12 5 8 7 11 2 4 9 6 8 8 6 5 5 9
11 8 5 4 6 12 16 20 13 14 10 10 12 14 19 17 15 15 14 13 16 17 15 8 11 9 8 13 18 13 6 8 10 4 5 6 6 8 6 7 6 4 7 10 11
10 7 6 4 6 13 16 16 16 13 15 7 10 10 13 14 17 15 13 14 18 17 16 12 12 12 7 10 10 13 13 11 10 8 10 6 3 3 9 5 5 6 4 8 8
10 2 7 4 5 11 13 13 14 12 20 12 11 10 12 12 16 15 16 14 17 18 20 19 14 13 8 10 9 14 13 11 14 7 6 12 14 2 7 6 6 5 4 8 4
8 7 8 7 5 9 12 11 14 14 14 11 11 11 10 11 12 17 13 17 21 15 16 22 16 12 11 8 12 10 11 14 15 13 16 12 3 2 4 5 5 5 4 6 8
9 2 6 9 12 11 10 12 13 15 17 14 14 12 12 13 13 9 15 15 19 18 18 19 20 18 14 3 1 8 13 15 15 17 11 12 5 3 4 5 6 7 7 7 10
11 6 9 5 7 13 14 11 12 12 16 16 13 11 8 12 14 15 14 14 19 22 21 21 21 19 17 12 10 13 13 15 18 16 12 4 7 6 6 5 8 6 8 8 6
12 8 8 15 17 14 11 10 12 12 18 13 15 12 14 9 8 7 9 12 14 22 23 21 20 15 18 13 13 14 14 15 17 17 16 16 14 11 12 10 7 6 4 2 5
13 12 11 9 8 10 12 12 12 20 20 22 22 22 19 14 16 17 16 17 14 13 22 20 20 17 20 15 13 17 18 16 16 17 18 19 16 15 12 10 9 6 4 1 3
Wind_Direction
51 53 55 54 48 91 177 180 178 188 194 196 193 198 200 199 194 184 176 167 145 129 127 136 126 120 347 327 326 307 242 188 173 154 148 135 129 94 95 113 118 125 138 168 137
50 51 50 51 50 41 91 186 188 185 192 196 194 194 199 201 200 192 180 154 145 139 132 122 105 53 5 323 333 199 175 160 148 143 142 129 137 100 113 100 87 129 152 142 140
47 48 47 46 46 47 57 135 178 183 190 191 192 189 194 199 200 200 184 160 154 144 133 122 103 31 329 7 25 185 161 157 154 167 153 145 135 117 126 85 123 134 151 144 147
44 46 47 46 42 44 54 80 131 165 178 184 185 188 184 184 185 205 192 170 160 151 143 134 84 30 29 27 354 46 178 167 129 149 148 150 148 128 127 107 141 136 150 151 132
38 42 44 46 51 53 62 74 103 141 163 169 175 184 185 182 205 194 188 179 167 156 154 144 77 43 360 25 49 354 179 176 159 165 177 167 160 146 133 114 133 129 139 145 139
35 37 41 47 53 59 67 78 93 115 135 149 162 178 184 179 208 189 182 180 168 162 161 162 150 25 45 53 42 64 102 176 189 185 188 143 167 144 166 127 140 133 129 128 132
27 30 37 54 58 59 64 71 88 109 125 139 153 169 180 208 217 194 178 179 169 164 171 182 176 59 115 39 66 70 80 98 206 199 159 172 158 144 159 144 153 154 135 132 135
15 18 21 51 57 59 58 57 61 91 132 145 152 166 190 200 212 183 173 178 169 169 176 181 214 179 103 82 58 74 47 119 137 184 207 200 193 189 170 168 169 169 167 148 145
4 4 3 7 20 39 62 61 57 60 95 153 159 175 225 215 198 177 169 174 174 170 176 199 216 220 195 135 129 58 41 62 121 148 155 197 215 207 183 183 180 182 189 178 171
355 350 342 330 315 10 52 358 231 126 134 160 189 150 241 207 199 182 176 172 179 174 180 199 214 186 227 211 12 64 48 50 68 165 125 132 155 172 182 183 181 190 192 190 192
334 334 325 304 271 245 222 94 61 332 225 200 222 207 239 212 183 179 180 179 183 183 194 212 213 209 215 260 357 23 18 42 74 92 146 146 180 195 197 192 189 190 195 201 194
315 312 315 302 269 248 188 174 148 305 189 237 195 211 220 173 170 180 184 176 192 201 206 224 228 228 239 267 279 302 348 77 61 75 138 201 214 204 190 192 196 191 198 196 200
318 301 296 292 267 231 192 182 175 86 138 212 203 173 145 169 183 200 185 192 196 208 220 227 208 230 260 252 261 254 307 138 111 85 141 229 234 224 208 196 211 205 205 210 209
321 314 291 282 267 226 199 182 182 82 180 210 192 189 154 148 194 196 197 193 203 213 225 236 226 238 255 240 228 246 311 194 159 197 96 340 147 153 198 210 190 201 208 209 217
315 313 299 274 259 226 199 187 192 166 254 171 184 188 175 165 193 170 188 203 210 212 200 214 206 217 223 225 243 256 244 194 192 234 284 165 261 120 193 221 232 229 220 222 216
318 313 300 276 252 234 205 196 188 217 217 172 190 193 175 178 185 182 160 173 193 201 215 213 205 195 224 235 186 206 161 195 194 240 234 102 304 156 184 255 224 229 231 219 219
321 315 301 271 248 228 203 193 211 233 211 194 189 189 188 193 195 191 195 201 198 198 208 204 208 209 196 178 168 199 224 206 185 233 159 59 270 285 288 278 251 248 269 255 221
315 313 302 269 239 216 199 191 224 228 199 195 191 197 201 200 209 206 207 213 214 215 219 202 182 206 212 221 225 227 272 292 268 267 116 143 241 184 286 281 265 280 274 250 231
318 316 307 280 226 201 190 203 221 222 206 203 217 210 211 210 211 208 212 217 213 199 222 204 192 199 228 226 219 215 238 281 281 243 267 189 277 277 295 267 268 269 257 271 241
318 319 300 272 226 198 195 215 223 217 211 216 218 211 216 208 209 210 208 213 201 205 204 218 198 203 221 222 221 222 211 230 205 252 250 139 281 282 307 268 229 259 289 283 260
321 322 294 257 214 196 208 220 234 219 215 217 221 223 217 211 214 214 222 218 206 209 205 211 226 179 181 208 205 213 228 243 286 292 307 289 321 309 296 220 202 273 296 303 273
323 303 283 258 196 206 221 221 228 209 233 227 226 224 218 214 215 220 222 221 207 209 211 208 222 206 209 253 240 227 245 238 251 203 238 296 293 304 290 215 255 273 318 346 20
335 290 273 253 214 235 234 228 221 221 229 237 235 235 227 220 228 222 229 222 224 228 212 203 218 206 211 224 238 229 242 244 255 269 270 282 138 293 301 246 274 255 318 322 348
334 333 285 250 239 223 234 231 227 233 224 229 230 245 242 240 233 226 228 235 222 221 211 203 227 228 234 273 179 218 252 241 243 248 252 238 270 272 267 269 289 259 281 298 296
338 285 263 251 254 232 234 235 228 231 223 228 237 226 236 239 238 238 234 239 230 226 223 211 228 235 249 261 263 269 263 236 232 243 257 256 238 263 249 252 283 267 278 291 287
336 317 271 261 258 249 248 246 233 233 228 226 224 228 228 235 239 221 226 227 224 226 215 217 229 222 239 243 253 254 252 235 234 241 244 253 260 268 256 262 249 228 233 265 321
326 319 311 283 263 261 248 237 236 240 232 227 228 236 243 253 242 241 233 226 225 212 217 211 219 217 240 234 243 249 241 236 238 241 247 253 261 252 243 244 214 205 180 140 353